COSMOS 2491 DEB, 57549

Orbit data source: Space-Track

COSMOS 2491 DEB, 57549 is space debris in LEO originally from a launch on Wed, 25 Dec 2013 UTC launched from the Plesetsk Missile And Space Complex (PKMTR). Debris objects in space refer to the collection of defunct objects orbiting the Earth. Examples of debris include non-operational satellites, rocket bodies, and fragments generated from explosions, collisions, or faulty payload assembly.

Loading next visibility...
Identifier
57549, 2013-076AL
Orbit
LEO
Country
Flag of CISCIS
Related business
Manufacturer
TsNIIKhM
Mission
Spacecraft
Bus & Motor
Unknown
Mass
Unknown
Launch date (UTC)
2013-12-25 (12 years ago)
Launch vehicle
Unknown
Launch site
Plesetsk Missile And Space Complex (PKMTR)
Object type
Payload
Rocket body
Debris
Shape & HBR
Unknown shape, 0.1 m
Radar Cross Section
Small (<0.1 m²)

Expand to show TLE details & history
Last TLE update: 3 days ago

TLE from 3 days ago
0 COSMOS 2491 DEB
1 57549U 13076AL  26092.84810175  .00004025  00000-0  18361-1 0  9991
2 57549  82.4705 144.8926 0136600 255.1433 103.4502 12.74356475134468
Epoch: 2026-04-02T20:21Z
TLE epoch observation values (Epoch: 2026-04-02T20:21:15.991Z)
Latitude
0.00004°
Longitude
8.38528°
Altitude
1,392.953 km
Speed
7.151 km/s
True Right ascension
09h 39m 34s
True Declination
0° 00' 00"
Sunlit
Object was in full shadow at epoch
Visualization orbit readout
Latitude
Unknown
Longitude
Unknown
Altitude
Unknown
Speed
Unknown
Apparent Right ascension
Unknown
Apparent Declination
Unknown
Sunlit
N/A
Visualization observer readout
Local Sidereal Time
23:52:20
Azimuth
Unknown
Elevation
Unknown
Doppler factor
Unknown
Orbital elements
Apogee altitude
1,467.275 km
Perigee altitude
1,255.827 km
Semi-major axis
7,739.688 km
Eccentricity
0.01366
Inclination
82.4705°
RAAN
144.8926°
Arg. of periapsis
255.1433°
True anomaly
104.96639°
Mean anomaly
103.4502°
Eccentric anomaly
104.20892°
Mean motion
3.18756 °/min
Orbital period
112.94 mins
BSTAR
0.018361
Loading maneuver chart data...
Computing Atmospheric mass density...
Loading historical data...
Loading historical data...
Loading historical data...
Loading historical data...
Loading historical data...
Loading historical data...
Loading historical data...

Documentation

Showing up to 5 results
|